Time,TemperatureF,DewpointF,PressureIn,WindDirection,WindDirectionDegrees,WindSpeedMPH,WindSpeedGustMPH,Humidity,HourlyPrecipIn,Conditions,Clouds,dailyrainin,SoftwareType,DateUTC
2013-04-11 00:00:00,40.0,23.8,30.19,NNE,29,0.0,3.0,52,0.00,CLR,,0.00,WeatherDisplay:10.37,2013-04-11 07:00:00,
2013-04-11 00:10:00,39.0,24.2,30.19,NW,311,5.0,6.0,55,0.00,CLR,,0.00,WeatherDisplay:10.37,2013-04-11 07:10:00,
2013-04-11 00:20:00,39.0,23.3,30.19,WSW,247,0.0,5.0,53,0.00,CLR,,0.00,WeatherDisplay:10.37,2013-04-11 07:20:00,
2013-04-11 00:30:00,38.0,22.8,30.19,WSW,247,2.0,3.0,54,0.00,CLR,,0.00,WeatherDisplay:10.37,2013-04-11 07:30:00,
2013-04-11 00:40:00,37.0,22.7,30.20,WSW,247,1.0,3.0,56,0.00,CLR,,0.00,WeatherDisplay:10.37,2013-04-11 07:40:00,
2013-04-11 00:50:00,38.0,23.3,30.20,West,270,0.0,4.0,55,0.00,CLR,,0.00,WeatherDisplay:10.37,2013-04-11 07:50:00,
2013-04-11 01:00:00,37.0,22.7,30.20,West,270,0.0,1.0,56,0.00,CLR,,0.00,WeatherDisplay:10.37,2013-04-11 08:00:00,
2013-04-11 01:10:00,38.0,23.7,30.19,NNW,337,1.0,5.0,56,0.00,CLR,,0.00,WeatherDisplay:10.37,2013-04-11 08:10:00,
2013-04-11 01:20:00,37.0,22.7,30.20,NNW,337,2.0,3.0,56,0.00,CLR,,0.00,WeatherDisplay:10.37,2013-04-11 08:20:00,
2013-04-11 01:30:00,37.0,23.2,30.20,NNW,337,2.0,5.0,57,0.00,CLR,,0.00,WeatherDisplay:10.37,2013-04-11 08:30:00,
2013-04-11 01:40:00,36.0,21.8,30.20,NNW,337,0.0,4.0,56,0.00,CLR,,0.00,WeatherDisplay:10.37,2013-04-11 08:40:00,
2013-04-11 01:50:00,35.0,22.5,30.20,WSW,257,0.0,5.0,60,0.00,CLR,,0.00,WeatherDisplay:10.37,2013-04-11 08:50:00,
2013-04-11 02:00:00,34.0,21.2,30.21,WSW,247,0.0,1.0,59,0.00,CLR,,0.00,WeatherDisplay:10.37,2013-04-11 09:00:00,
2013-04-11 02:10:00,32.0,20.4,30.20,WSW,255,0.0,2.0,62,0.00,CLR,,0.00,WeatherDisplay:10.37,2013-04-11 09:10:00,
2013-04-11 02:20:00,31.8,20.3,30.21,WNW,292,0.0,2.0,62,0.00,CLR,,0.00,WeatherDisplay:10.37,2013-04-11 09:20:00,
2013-04-11 02:30:00,31.0,21.3,30.21,WNW,292,1.0,3.0,67,0.00,CLR,,0.00,WeatherDisplay:10.37,2013-04-11 09:30:00,
2013-04-11 02:40:00,32.0,22.3,30.21,WNW,292,3.0,5.0,67,0.00,CLR,,0.00,WeatherDisplay:10.37,2013-04-11 09:40:00,
2013-04-11 02:50:00,32.0,22.6,30.21,WNW,292,2.0,5.0,68,0.00,CLR,,0.00,WeatherDisplay:10.37,2013-04-11 09:50:00,
2013-04-11 03:00:00,31.0,21.7,30.19,WNW,292,1.0,3.0,68,0.00,CLR,,0.00,WeatherDisplay:10.37,2013-04-11 10:00:00,
2013-04-11 03:10:00,32.0,23.3,30.20,WNW,292,3.0,5.0,70,0.00,CLR,,0.00,WeatherDisplay:10.37,2013-04-11 10:10:00,
2013-04-11 03:20:00,32.0,23.0,30.20,WNW,292,3.0,5.0,69,0.00,CLR,,0.00,WeatherDisplay:10.37,2013-04-11 10:20:00,
2013-04-11 03:30:00,32.2,22.5,30.20,WNW,292,3.0,4.0,67,0.00,CLR,,0.00,WeatherDisplay:10.37,2013-04-11 10:30:00,
2013-04-11 03:40:00,33.0,22.9,30.19,WNW,292,2.0,4.0,66,0.00,CLR,,0.00,WeatherDisplay:10.37,2013-04-11 10:40:00,
2013-04-11 03:50:00,32.0,21.9,30.19,WNW,292,0.0,3.0,66,0.00,CLR,,0.00,WeatherDisplay:10.37,2013-04-11 10:50:00,
2013-04-11 04:00:00,30.0,20.4,30.20,WNW,292,0.0,0.0,67,0.00,CLR,,0.00,WeatherDisplay:10.37,2013-04-11 11:00:00,
2013-04-11 04:10:00,29.0,19.8,30.21,WNW,292,0.0,0.0,68,0.00,CLR,,0.00,WeatherDisplay:10.37,2013-04-11 11:10:00,
2013-04-11 04:20:00,28.0,18.8,30.21,WNW,292,0.0,0.0,68,0.00,CLR,,0.00,WeatherDisplay:10.37,2013-04-11 11:20:00,
2013-04-11 04:30:00,28.0,20.1,30.21,WNW,292,3.0,5.0,72,0.00,CLR,,0.00,WeatherDisplay:10.37,2013-04-11 11:30:00,
2013-04-11 04:40:00,28.0,20.5,30.21,NW,313,0.0,3.0,73,0.00,CLR,,0.00,WeatherDisplay:10.37,2013-04-11 11:40:00,
2013-04-11 04:50:00,27.0,20.4,30.21,NNW,337,3.0,4.0,76,0.00,CLR,,0.00,WeatherDisplay:10.37,2013-04-11 11:50:00,
2013-04-11 05:00:00,27.0,20.4,30.21,NNW,337,0.0,5.0,76,0.00,CLR,,0.00,WeatherDisplay:10.37,2013-04-11 12:00:00,
2013-04-11 05:10:00,28.0,20.8,30.21,NW,326,3.0,5.0,74,0.00,CLR,,0.00,WeatherDisplay:10.37,2013-04-11 12:10:00,
2013-04-11 05:20:00,29.2,21.2,30.21,WNW,295,5.0,6.0,72,0.00,CLR,,0.00,WeatherDisplay:10.37,2013-04-11 12:20:00,
2013-04-11 05:30:00,30.0,21.4,30.20,WNW,292,3.0,6.0,70,0.00,CLR,,0.00,WeatherDisplay:10.37,2013-04-11 12:30:00,
2013-04-11 05:40:00,31.0,22.0,30.20,WNW,292,3.0,5.0,69,0.00,CLR,,0.00,WeatherDisplay:10.37,2013-04-11 12:40:00,
2013-04-11 05:50:00,30.0,21.1,30.20,WNW,292,0.0,4.0,69,0.00,CLR,,0.00,WeatherDisplay:10.37,2013-04-11 12:50:00,
2013-04-11 06:00:00,28.9,20.0,30.21,NW,321,2.0,3.0,69,0.00,CLR,,0.00,WeatherDisplay:10.37,2013-04-11 13:00:00,
2013-04-11 06:10:00,29.0,21.4,30.21,North,352,5.0,6.0,73,0.00,CLR,,0.00,WeatherDisplay:10.37,2013-04-11 13:10:00,
2013-04-11 06:20:00,31.0,22.7,30.20,North,360,2.0,5.0,71,0.00,CLR,,0.00,WeatherDisplay:10.37,2013-04-11 13:20:00,
2013-04-11 06:30:00,33.0,23.2,30.20,North,360,2.0,5.0,67,0.00,CLR,,0.00,WeatherDisplay:10.37,2013-04-11 13:30:00,
2013-04-11 06:40:00,35.2,24.2,30.18,North,360,2.0,5.0,64,0.00,CLR,,0.00,WeatherDisplay:10.37,2013-04-11 13:40:00,
2013-04-11 06:50:00,37.2,24.5,30.17,North,360,1.0,4.0,60,0.00,CLR,,0.00,WeatherDisplay:10.37,2013-04-11 13:50:00,
2013-04-11 07:00:00,39.0,24.6,30.16,North,360,0.0,2.0,56,0.00,CLR,,0.00,WeatherDisplay:10.37,2013-04-11 14:00:00,
2013-04-11 07:10:00,41.0,25.6,30.15,NE,44,1.0,3.0,54,0.00,CLR,,0.00,WeatherDisplay:10.37,2013-04-11 14:10:00,
2013-04-11 07:20:00,41.0,24.7,30.15,SSE,166,3.0,6.0,52,0.00,CLR,,0.00,WeatherDisplay:10.37,2013-04-11 14:20:00,
2013-04-11 07:30:00,42.2,25.3,30.15,SSW,202,1.0,5.0,51,0.00,CLR,,0.00,WeatherDisplay:10.37,2013-04-11 14:30:00,
2013-04-11 07:40:00,45.0,27.5,30.14,SSW,202,1.0,4.0,50,0.00,CLR,,0.00,WeatherDisplay:10.37,2013-04-11 14:40:00,
2013-04-11 07:50:00,47.0,26.7,30.13,SSW,202,0.0,4.0,45,0.00,CLR,,0.00,WeatherDisplay:10.37,2013-04-11 14:50:00,
2013-04-11 08:00:00,49.0,28.0,30.12,SSW,202,1.0,3.0,44,0.00,CLR,,0.00,WeatherDisplay:10.37,2013-04-11 15:00:00,
2013-04-11 08:10:00,51.0,28.1,30.11,South,186,1.0,3.0,41,0.00,CLR,,0.00,WeatherDisplay:10.37,2013-04-11 15:10:00,
2013-04-11 08:20:00,53.0,27.4,30.10,South,184,0.0,2.0,37,0.00,CLR,,0.00,WeatherDisplay:10.37,2013-04-11 15:20:00,
2013-04-11 08:30:00,55.0,27.8,30.09,SW,220,0.0,0.0,35,0.00,CLR,,0.00,WeatherDisplay:10.37,2013-04-11 15:30:00,
2013-04-11 08:40:00,57.0,28.9,30.08,SSE,168,0.0,3.0,34,0.00,CLR,,0.00,WeatherDisplay:10.37,2013-04-11 15:40:00,
2013-04-11 08:50:00,58.0,27.5,30.07,South,178,0.0,3.0,31,0.00,CLR,,0.00,WeatherDisplay:10.37,2013-04-11 15:50:00,
2013-04-11 09:00:00,59.0,28.4,30.07,SE,145,2.0,6.0,31,0.00,CLR,,0.00,WeatherDisplay:10.37,2013-04-11 16:00:00,
2013-04-11 09:10:00,60.0,24.0,30.07,ESE,122,2.0,6.0,25,0.00,CLR,,0.00,WeatherDisplay:10.37,2013-04-11 16:10:00,
2013-04-11 09:20:00,61.0,23.9,30.07,ESE,112,1.0,9.0,24,0.00,CLR,,0.00,WeatherDisplay:10.37,2013-04-11 16:20:00,
2013-04-11 09:30:00,62.0,23.7,30.06,ESE,113,2.0,6.0,23,0.00,CLR,,0.00,WeatherDisplay:10.37,2013-04-11 16:30:00,
2013-04-11 09:40:00,61.0,22.9,30.07,ENE,65,5.0,10.0,23,0.00,CLR,,0.00,WeatherDisplay:10.37,2013-04-11 16:40:00,
2013-04-11 09:50:00,62.2,22.8,30.06,East,101,2.0,8.0,22,0.00,CLR,,0.00,WeatherDisplay:10.37,2013-04-11 16:50:00,
2013-04-11 10:00:00,63.0,22.4,30.05,ENE,69,7.0,10.0,21,0.00,CLR,,0.00,WeatherDisplay:10.37,2013-04-11 17:00:00,
2013-04-11 10:10:00,63.0,21.2,30.05,North,2,2.0,10.0,20,0.00,CLR,,0.00,WeatherDisplay:10.37,2013-04-11 17:10:00,
2013-04-11 10:20:00,63.0,21.2,30.05,East,90,5.0,7.0,20,0.00,CLR,,0.00,WeatherDisplay:10.37,2013-04-11 17:20:00,
2013-04-11 10:30:00,65.0,24.1,30.04,South,173,5.0,8.0,21,0.00,CLR,,0.00,WeatherDisplay:10.37,2013-04-11 17:30:00,
2013-04-11 10:40:00,64.0,22.1,30.05,WNW,284,5.0,9.0,20,0.00,CLR,,0.00,WeatherDisplay:10.37,2013-04-11 17:40:00,
2013-04-11 10:50:00,64.0,23.2,30.04,WNW,282,5.0,10.0,21,0.00,CLR,,0.00,WeatherDisplay:10.37,2013-04-11 17:50:00,
2013-04-11 11:00:00,64.0,22.1,30.03,WSW,242,6.0,9.0,20,0.00,CLR,,0.00,WeatherDisplay:10.37,2013-04-11 18:00:00,
2013-04-11 11:10:00,66.0,23.7,30.03,North,1,7.0,12.0,20,0.00,CLR,,0.00,WeatherDisplay:10.37,2013-04-11 18:10:00,
2013-04-11 11:20:00,67.0,24.6,30.03,NNW,339,2.0,9.0,20,0.00,CLR,,0.00,WeatherDisplay:10.37,2013-04-11 18:20:00,
2013-04-11 11:30:00,66.0,23.7,30.01,NNE,27,9.0,12.0,20,0.00,CLR,,0.00,WeatherDisplay:10.37,2013-04-11 18:30:00,
2013-04-11 11:40:00,67.0,23.3,30.01,NE,35,7.0,12.0,19,0.00,CLR,,0.00,WeatherDisplay:10.37,2013-04-11 18:40:00,
2013-04-11 11:50:00,67.1,22.1,30.00,WNW,287,7.0,9.0,18,0.00,CLR,,0.00,WeatherDisplay:10.37,2013-04-11 18:50:00,
2013-04-11 12:00:00,68.0,22.9,29.99,NNE,29,7.0,10.0,18,0.00,CLR,,0.00,WeatherDisplay:10.37,2013-04-11 19:00:00,
2013-04-11 12:10:00,68.0,24.2,29.99,North,6,7.0,12.0,19,0.00,CLR,,0.00,WeatherDisplay:10.37,2013-04-11 19:10:00,
2013-04-11 12:20:00,69.0,25.0,29.98,ENE,62,2.0,9.0,19,0.00,CLR,,0.00,WeatherDisplay:10.37,2013-04-11 19:20:00,
2013-04-11 12:30:00,69.0,23.7,29.98,NE,53,6.0,10.0,18,0.00,CLR,,0.00,WeatherDisplay:10.37,2013-04-11 19:30:00,
2013-04-11 12:40:00,69.0,23.7,29.97,NE,50,5.0,10.0,18,0.00,CLR,,0.00,WeatherDisplay:10.37,2013-04-11 19:40:00,
2013-04-11 12:50:00,70.0,23.1,29.96,WNW,283,1.0,9.0,17,0.00,CLR,,0.00,WeatherDisplay:10.37,2013-04-11 19:50:00,
2013-04-11 13:00:00,70.0,23.1,29.96,SW,220,5.0,15.0,17,0.00,CLR,,0.00,WeatherDisplay:10.37,2013-04-11 20:00:00,
2013-04-11 13:10:00,71.0,22.5,29.95,South,171,6.0,10.0,16,0.00,CLR,,0.00,WeatherDisplay:10.37,2013-04-11 20:10:00,
2013-04-11 13:20:00,71.0,22.5,29.95,South,186,1.0,9.0,16,0.00,CLR,,0.00,WeatherDisplay:10.37,2013-04-11 20:20:00,
2013-04-11 13:30:00,71.0,22.5,29.94,SSW,196,6.0,10.0,16,0.00,CLR,,0.00,WeatherDisplay:10.37,2013-04-11 20:30:00,
2013-04-11 13:40:00,71.1,22.6,29.95,SW,223,1.0,9.0,16,0.00,CLR,,0.00,WeatherDisplay:10.37,2013-04-11 20:40:00,
2013-04-11 13:50:00,71.0,22.5,29.93,WSW,256,6.0,12.0,16,0.00,CLR,,0.00,WeatherDisplay:10.37,2013-04-11 20:50:00,
2013-04-11 14:00:00,72.0,23.3,29.92,NNW,337,7.0,16.0,16,0.00,CLR,,0.00,WeatherDisplay:10.37,2013-04-11 21:00:00,
2013-04-11 14:10:00,74.0,24.9,29.92,NW,311,7.0,20.0,16,0.00,CLR,,0.00,WeatherDisplay:10.37,2013-04-11 21:10:00,
2013-04-11 14:20:00,74.0,23.4,29.91,South,170,6.0,20.0,15,0.00,CLR,,0.00,WeatherDisplay:10.37,2013-04-11 21:20:00,
2013-04-11 14:30:00,75.0,24.2,29.89,SSE,166,2.0,8.0,15,0.00,CLR,,0.00,WeatherDisplay:10.37,2013-04-11 21:30:00,
2013-04-11 14:40:00,76.0,23.3,29.89,East,87,7.0,9.0,14,0.00,CLR,,0.00,WeatherDisplay:10.37,2013-04-11 21:40:00,
2013-04-11 14:50:00,76.0,23.3,29.88,SE,130,1.0,8.0,14,0.00,CLR,,0.00,WeatherDisplay:10.37,2013-04-11 21:50:00,
2013-04-11 15:00:00,77.0,22.4,29.87,SE,143,3.0,8.0,13,0.00,CLR,,0.00,WeatherDisplay:10.37,2013-04-11 22:00:00,
2013-04-11 15:10:00,77.0,22.4,29.86,ENE,78,5.0,12.0,13,0.00,CLR,,0.00,WeatherDisplay:10.37,2013-04-11 22:10:00,
2013-04-11 15:20:00,76.8,22.2,29.86,NE,49,6.0,16.0,13,0.00,CLR,,0.00,WeatherDisplay:10.37,2013-04-11 22:20:00,
2013-04-11 15:30:00,77.0,22.4,29.86,East,82,3.0,10.0,13,0.00,CLR,,0.00,WeatherDisplay:10.37,2013-04-11 22:30:00,
2013-04-11 15:40:00,76.0,21.6,29.86,NE,52,3.0,12.0,13,0.00,CLR,,0.00,WeatherDisplay:10.37,2013-04-11 22:40:00,
2013-04-11 15:50:00,76.0,23.3,29.85,ENE,65,2.0,15.0,14,0.00,CLR,,0.00,WeatherDisplay:10.37,2013-04-11 22:50:00,
2013-04-11 16:00:00,77.0,22.4,29.85,East,94,1.0,9.0,13,0.00,CLR,,0.00,WeatherDisplay:10.37,2013-04-11 23:00:00,
2013-04-11 16:10:00,77.0,22.4,29.84,NW,307,6.0,9.0,13,0.00,CLR,,0.00,WeatherDisplay:10.37,2013-04-11 23:10:00,
2013-04-11 16:20:00,76.0,21.6,29.84,NNW,339,7.0,13.0,13,0.00,CLR,,0.00,WeatherDisplay:10.37,2013-04-11 23:20:00,
2013-04-11 16:30:00,76.0,21.6,29.84,NNE,24,5.0,12.0,13,0.00,CLR,,0.00,WeatherDisplay:10.37,2013-04-11 23:30:00,
2013-04-11 16:40:00,76.0,21.6,29.85,NNE,26,7.0,13.0,13,0.00,CLR,,0.00,WeatherDisplay:10.37,2013-04-11 23:40:00,
2013-04-11 16:50:00,76.0,21.6,29.85,ENE,63,2.0,8.0,13,0.00,CLR,,0.00,WeatherDisplay:10.37,2013-04-11 23:50:00,
2013-04-11 17:00:00,75.0,12.3,29.85,West,271,13.0,17.0,9,0.00,CLR,,0.00,WeatherDisplay:10.37,2013-04-12 00:00:00,
2013-04-11 17:10:00,75.0,14.7,29.85,West,273,7.0,16.0,10,0.00,CLR,,0.00,WeatherDisplay:10.37,2013-04-12 00:10:00,
2013-04-11 17:20:00,73.0,15.3,29.86,WNW,286,10.0,17.0,11,0.00,CLR,,0.00,WeatherDisplay:10.37,2013-04-12 00:20:00,
2013-04-11 17:30:00,74.0,16.1,29.85,West,281,7.0,13.0,11,0.00,CLR,,0.00,WeatherDisplay:10.37,2013-04-12 00:30:00,
2013-04-11 17:40:00,73.0,17.3,29.85,West,280,9.0,12.0,12,0.00,CLR,,0.00,WeatherDisplay:10.37,2013-04-12 00:40:00,
2013-04-11 17:50:00,73.0,19.2,29.86,WNW,298,10.0,14.0,13,0.00,CLR,,0.00,WeatherDisplay:10.37,2013-04-12 00:50:00,
2013-04-11 18:00:00,72.0,20.1,29.86,WNW,295,10.0,14.0,14,0.00,CLR,,0.00,WeatherDisplay:10.37,2013-04-12 01:00:00,
2013-04-11 18:10:00,71.9,20.1,29.86,WNW,300,7.0,10.0,14,0.00,CLR,,0.00,WeatherDisplay:10.37,2013-04-12 01:10:00,
2013-04-11 18:20:00,70.8,19.2,29.87,WNW,289,9.0,13.0,14,0.00,CLR,,0.00,WeatherDisplay:10.37,2013-04-12 01:20:00,
2013-04-11 18:30:00,70.0,20.2,29.87,WNW,293,8.0,15.0,15,0.00,CLR,,0.00,WeatherDisplay:10.37,2013-04-12 01:30:00,
2013-04-11 18:40:00,68.0,18.6,29.88,WNW,292,7.0,13.0,15,0.00,CLR,,0.00,WeatherDisplay:10.37,2013-04-12 01:40:00,
2013-04-11 18:50:00,67.0,19.3,29.89,WNW,292,6.0,9.0,16,0.00,CLR,,0.00,WeatherDisplay:10.37,2013-04-12 01:50:00,
2013-04-11 19:00:00,66.0,19.9,29.89,WNW,302,7.0,10.0,17,0.00,CLR,,0.00,WeatherDisplay:10.37,2013-04-12 02:00:00,
2013-04-11 19:10:00,65.0,21.7,29.89,NW,309,8.0,10.0,19,0.00,CLR,,0.00,WeatherDisplay:10.37,2013-04-12 02:10:00,
2013-04-11 19:20:00,64.0,22.1,29.90,WNW,292,5.0,9.0,20,0.00,CLR,,0.00,WeatherDisplay:10.37,2013-04-12 02:20:00,
2013-04-11 19:30:00,63.0,20.0,29.91,WNW,292,6.0,7.0,19,0.00,CLR,,0.00,WeatherDisplay:10.37,2013-04-12 02:30:00,
2013-04-11 19:40:00,62.0,20.4,29.92,WNW,292,3.0,6.0,20,0.00,CLR,,0.00,WeatherDisplay:10.37,2013-04-12 02:40:00,
2013-04-11 19:50:00,61.0,19.6,29.93,WNW,300,5.0,6.0,20,0.00,CLR,,0.00,WeatherDisplay:10.37,2013-04-12 02:50:00,
2013-04-11 20:00:00,62.0,20.4,29.93,NNW,329,7.0,9.0,20,0.00,CLR,,0.00,WeatherDisplay:10.37,2013-04-12 03:00:00,
2013-04-11 20:10:00,63.0,22.4,29.93,NW,314,8.0,10.0,21,0.00,CLR,,0.00,WeatherDisplay:10.37,2013-04-12 03:10:00,
2013-04-11 20:20:00,63.0,22.4,29.92,WNW,293,7.0,9.0,21,0.00,CLR,,0.00,WeatherDisplay:10.37,2013-04-12 03:20:00,
2013-04-11 20:30:00,61.9,21.5,29.93,NW,309,6.0,10.0,21,0.00,CLR,,0.00,WeatherDisplay:10.37,2013-04-12 03:30:00,
2013-04-11 20:40:00,60.0,22.0,29.95,NW,318,6.0,7.0,23,0.00,CLR,,0.00,WeatherDisplay:10.37,2013-04-12 03:40:00,
2013-04-11 20:50:00,59.0,22.2,29.96,North,7,3.0,6.0,24,0.00,CLR,,0.00,WeatherDisplay:10.37,2013-04-12 03:50:00,
2013-04-11 21:00:00,56.0,24.2,29.97,NE,44,6.0,7.0,29,0.00,CLR,,0.00,WeatherDisplay:10.37,2013-04-12 04:00:00,
2013-04-11 21:10:00,56.0,24.2,29.98,NE,45,6.0,7.0,29,0.00,CLR,,0.00,WeatherDisplay:10.37,2013-04-12 04:10:00,
2013-04-11 21:20:00,56.0,23.3,29.99,NNE,16,6.0,9.0,28,0.00,CLR,,0.00,WeatherDisplay:10.37,2013-04-12 04:20:00,
2013-04-11 21:30:00,55.0,22.4,29.98,NNW,337,6.0,8.0,28,0.00,CLR,,0.00,WeatherDisplay:10.37,2013-04-12 04:30:00,
2013-04-11 21:40:00,54.0,22.4,29.99,NNW,337,6.0,7.0,29,0.00,CLR,,0.00,WeatherDisplay:10.37,2013-04-12 04:40:00,
2013-04-11 21:50:00,54.0,22.4,29.99,NNW,337,6.0,7.0,29,0.00,CLR,,0.00,WeatherDisplay:10.37,2013-04-12 04:50:00,
2013-04-11 22:00:00,53.0,21.6,30.00,NNW,347,5.0,8.0,29,0.00,CLR,,0.00,WeatherDisplay:10.37,2013-04-12 05:00:00,
2013-04-11 22:10:00,52.0,22.3,30.00,North,4,5.0,8.0,31,0.00,CLR,,0.00,WeatherDisplay:10.37,2013-04-12 05:10:00,
2013-04-11 22:20:00,51.0,20.6,30.01,NW,319,3.0,6.0,30,0.00,CLR,,0.00,WeatherDisplay:10.37,2013-04-12 05:20:00,
2013-04-11 22:30:00,51.0,20.6,30.01,NW,315,6.0,7.0,30,0.00,CLR,,0.00,WeatherDisplay:10.37,2013-04-12 05:30:00,
2013-04-11 22:40:00,53.0,21.6,29.99,NW,315,6.0,8.0,29,0.00,CLR,,0.00,WeatherDisplay:10.37,2013-04-12 05:40:00,
2013-04-11 22:50:00,53.0,21.6,30.00,NW,315,2.0,7.0,29,0.00,CLR,,0.00,WeatherDisplay:10.37,2013-04-12 05:50:00,
2013-04-11 23:00:00,52.0,21.5,30.00,NW,315,3.0,5.0,30,0.00,CLR,,0.00,WeatherDisplay:10.37,2013-04-12 06:00:00,
2013-04-11 23:10:00,51.0,20.6,30.00,NW,315,3.0,5.0,30,0.00,CLR,,0.00,WeatherDisplay:10.37,2013-04-12 06:10:00,
2013-04-11 23:20:00,49.9,21.1,30.01,NNE,13,0.0,6.0,32,0.00,CLR,,0.00,WeatherDisplay:10.37,2013-04-12 06:20:00,
2013-04-11 23:30:00,48.0,21.6,30.03,ENE,67,2.0,6.0,35,0.00,CLR,,0.00,WeatherDisplay:10.37,2013-04-12 06:30:00,
2013-04-11 23:40:00,47.0,22.0,30.03,ENE,67,0.0,3.0,37,0.00,CLR,,0.00,WeatherDisplay:10.37,2013-04-12 06:40:00,
2013-04-11 23:50:00,47.0,22.0,30.03,ENE,67,0.0,0.0,37,0.00,CLR,,0.00,WeatherDisplay:10.37,2013-04-12 06:50:00,